Etusivu
METAR-TAF:

METAR-TAF

Lentoasemat :

Wahpeton, Pohjois-Dakota, Yhdysvallat

Leveyspiiri: 46-14-39N, Pituuspiiri: 096-36-26W, korkeus merenpinnasta: 295 m

Tämänhetkinen sää

Tämä raportti tehtiin 20 minuuttia sitten, kello 11.15 UTC
Tuuli 7 kn etelästä
Lämpötila -16°C
Kosteus 84%
Ilmanpaine 1031 hPa
Näkyvyys: 16.1 km

METAR: KBWP 121115Z AUTO 17007KT 10SM M16/M18 A3045 RMK AO1

Aika: 05:35 (11:35 UTC)


TAF: puuttuu

Säähavainnot ja -ennusteet yli 4000 lentoasemalta (METAR- ja TAF-raportit).

Käytössä olevat sääasemat on merkitty karttaan keltaisilla ja punaisilla pisteillä.

Aseta hiiri pisteen päälle nähdäksesi sääaseman nimen.

Klikkaa sitten nähdäksesi säähavainnot ja -ennusteet.

Kartan vaihtaminen: klikkaa mustalla rastilla varustettuja vihreitä pisteitä, niin voit zoomata sisään; viivalla varustettua vihreää pistettä, niin voit zoomata ulos tai vihreitä nuolia, niin pääset viereisille kartoille.


METAR-TAF: